Погода в Каменке

Россия / Иркутская область     54°55′53″N   98°49′32″E
темп.,
°C
ветер,
м/с
пор.,
м/с
влажн.,
%
обл.,
%
осадки,
мм/ч
давл.,
гПа
погр.,
м
13 июня, вс
вс1323:00+9з1167100 0.0 101110
02:00+7зюз1169100 0.0 101210
05:00+7зюз2171100 0.0 101115
08:00+12зсз0155100 0.0 1011264
11:00+17ссз343698 0.0 10092120
14:00+19ссз4529100 0.0 10082669
17:00+19ссз4627100 0.0 10072698
20:00+16ссз244593 0.0 1008217
14 июня, пн
пн1423:00+11зюз225999 0.0 101041
02:00+11з31069100 0.1 1009418
05:00+8зюз2281100 0.0 100928
08:00+11зюз2871100 0.1 10091266
11:00+9з41090100 1.6 1009986
14:00+9зсз51088100 4.5 10111040
17:00+9ссз5980100 0.9 10131252
20:00+8сз2788100 2.1 1016665
15 июня, вт
вт1523:00+4з349398 1.1 101879
02:00+5зюз3492100 1.1 101792
05:00+6зюз51381100 0.0 1016363
08:00+10зсз385599 0.0 1017559
11:00+14сз593698 0.1 10162768
14:00+16сз5832100 0.1 10152904
17:00+16сз584170 0.1 10151902
20:00+12з2577100 0.6 1016288
16 июня, ср
ср1623:00+9зюз228895 0.3 101628
02:00+7юз348862 0.4 101664
05:00+7зюз3788100 0.0 1015106
08:00+11зюз2771100 0.0 1014220
11:00+17з334454 0.0 10121870
14:00+16зсз444895 0.0 10121182
17:00+15з5656100 0.0 10131120
20:00+10юз2491100 0.3 1014129
17 июня, чт
чт1723:00+10ююз249298 0.2 1014114
02:00+10ююз2391100 0.2 101389
05:00+10юз2295100 0.8 101262
08:00+10ююз2497100 5.8 1011126
11:00+14зюз2485100 1.0 1013401
14:00+12ю249698 3.9 1012189
17:00+20ююз147075 0.8 10091076
20:00+15ссв1195100 4.8 100921